Location: Czekanka
(50.4925°N, 19.2643°E)
Time: 01:45:45
(UTC+00:00)

CZ-2C R/B - Visible Passes

Search period start: 18 September 2024 00:00
Search period end: 28 September 2024 00:00
Orbit: 703 x 903 km, 98.2° (Epoch: 17 September)

Date Brightness Start Highest point End Pass type
(mag) Time Alt. Az. Time Alt. Az. Time Alt. Az.
18 Sep 3.4 01:15:27 10° N 01:21:02 58° WNW 01:21:02 58° WNW visible
18 Sep 5.2 02:57:04 10° NNW 02:59:50 14° NW 03:02:02 11° WNW visible
18 Sep 5.5 23:11:09 10° NE 23:14:00 17° ENE 23:14:00 17° ENE visible
19 Sep 3.4 00:49:44 10° NNE 00:54:59 74° N 00:54:59 74° N visible
19 Sep 4.8 02:30:35 10° N 02:34:36 20° NW 02:35:59 18° WNW visible
19 Sep 5.9 22:47:14 10° ENE 22:47:56 11° ENE 22:47:56 11° ENE visible
20 Sep 3.9 00:24:07 10° NNE 00:28:56 55° ENE 00:28:56 55° ENE visible
20 Sep 4.4 02:04:28 10° N 02:09:18 28° WNW 02:09:56 27° WNW visible
20 Sep 4.5 23:58:38 10° NNE 00:02:52 36° ENE 00:02:52 36° ENE visible
21 Sep 3.9 01:38:30 10° N 01:43:52 41° WNW 01:43:52 41° WNW visible
21 Sep 5.1 23:33:21 10° NE 23:36:49 24° ENE 23:36:49 24° ENE visible
22 Sep 3.6 01:12:40 10° N 01:17:48 57° NW 01:17:48 57° NW visible
22 Sep 5.1 02:54:11 10° NNW 02:57:04 14° NW 02:58:48 13° WNW visible
22 Sep 5.6 23:08:27 10° NE 23:10:45 16° ENE 23:10:45 16° ENE visible
23 Sep 3.7 00:46:57 10° NNE 00:51:45 62° NNE 00:51:45 62° NNE visible
23 Sep 4.8 02:27:46 10° N 02:31:51 20° NW 02:32:44 20° WNW visible
24 Sep 4.2 00:21:20 10° NNE 00:25:40 47° NE 00:25:40 47° NE visible
24 Sep 4.3 02:01:39 10° N 02:06:32 29° WNW 02:06:39 29° WNW visible
24 Sep 4.8 23:55:52 10° NNE 23:59:35 32° ENE 23:59:35 32° ENE visible
25 Sep 4.0 01:35:42 10° N 01:40:35 41° NW 01:40:35 41° NW visible
25 Sep 5.3 23:30:37 10° NE 23:33:30 22° ENE 23:33:30 22° ENE visible
26 Sep 3.8 01:09:52 10° N 01:14:30 52° NNW 01:14:30 52° NNW visible
26 Sep 5.1 02:51:19 10° NNW 02:54:18 14° NW 02:55:30 14° WNW visible
26 Sep 5.7 23:05:46 10° NE 23:07:25 14° ENE 23:07:25 14° ENE visible
27 Sep 4.0 00:44:08 10° NNE 00:48:25 51° NNE 00:48:25 51° NNE visible
27 Sep 4.7 02:24:54 10° N 02:29:02 21° NW 02:29:25 21° WNW visible
